Suggestion Search

Define a bounding box (note: it will not wrap North/South over poles). If the range is zero degrees, a bounding box will not be used to constrain the search.

Centered On °   °

Match text in the suggestion title, science rationale or special notes. The search is case-insensitive. % is a wildcard (_ for a single character).

Find
Search

You may select science themes to limit query, otherwise suggestions from all themes will be returned.

Multiple values may be selected (shift + click).

  Rows per page
597 records found, displaying 1 to 100.[First/Prev] 1, 2, 3, 4, 5, 6 [Next/Last]
ID Suggestion Title Latitude Longitude Repeat Created Observation ID
184567 Floor of Jones Crater -19.119 340.371 1 2020-05-06 ESP_065316_1605
184537 Crater floor deposits 23.933 358.835 1 2020-05-24 ESP_065236_2040
183676 Flat deposits and sinuous ridges downstream of alcoves on outer crater rim 8.221 311.386 1 2020-06-08
183664 Lake shorelines or high-lava stands 0.707 279.981 STEREO 2020-06-08
183662 Lake shorelines or high-lava stands 0.707 279.981 STEREO 2020-06-08
183660 Young outflow from Chapman et al 2010 EPSL v294 Figure 14 0.650 279.888 STEREO 2020-06-08
183658 Young outflow from Chapman et al 2010 EPSL v294 Figure 14 0.650 279.888 STEREO 2020-06-08
183278 Confirm and characterize pollywog exit breach and compare to channel -35.160 280.192 STEREO 2020-05-31
183276 Confirm and characterize pollywog exit breach and compare to channel -35.160 280.192 STEREO 2020-05-31
183274 200m thick candidate lake deposits at deepest point of Lampland -35.617 280.108 STEREO 2020-05-30
183272 200m thick candidate lake deposits at deepest point of Lampland -35.617 280.108 STEREO 2020-05-30
183270 Confirm stratigraphic relationships between lake deposits and ejecta -30.498 186.688 1 2020-05-30
183268 Flat layered deposits and candidate exit breach in small young crater -30.356 186.842 STEREO 2020-05-30 ESP_065480_1495
183266 Flat layered deposits and candidate exit breach in small young crater -30.356 186.842 STEREO 2020-05-30 ESP_065414_1495
183264 A 1km crater buried by candidate lake sediments near deepest point -32.387 173.860 STEREO 2020-05-30
183262 A 1km crater buried by candidate lake sediments near deepest point -32.387 173.860 STEREO 2020-05-30
183258 Constrain duration of paleolake by confirming synsedimentary impact crater -33.132 163.168 1 2020-05-30
183256 Test delta hypothesis for scarp fronted deposit -33.229 162.898 1 2020-05-30
183254 Set minimum lake depth by testing spillway hypothesis for channel -33.504 163.118 STEREO 2020-05-30
183252 Set minimum lake depth by testing spillway hypothesis for channel -33.504 163.118 STEREO 2020-05-30
183236 Layered materials at deepest point of crater fed by channels -35.941 143.155 1 2020-05-29
183168 Layered material inside impact crater -37.416 100.260 1 2020-05-29
183166 Quadruple exit breach in small fresh crater -35.824 99.772 STEREO 2020-05-29
183164 Quadruple exit breach in small fresh crater -35.824 99.772 STEREO 2020-05-29
183162 Crosscutting relationships between gully deposits from different direction -37.823 96.908 1 2020-05-29
183146 Two notches near lowest elevation point of crater rim -33.199 24.726 STEREO 2020-05-29
183144 Two notches near lowest elevation point of crater rim -33.199 24.726 STEREO 2020-05-29
183142 Central deposit and possible exit breach -35.729 25.957 STEREO 2020-05-29
183140 Central deposit and possible exit breach -35.729 25.957 STEREO 2020-05-29
183138 Deep exit breach from young 5 km crater -34.222 25.464 STEREO 2020-05-29
183136 Deep exit breach from young 5 km crater -34.222 25.464 STEREO 2020-05-29
183134 Test exit breach or headward erosion hypotheses for erosional feature -34.731 25.737 STEREO 2020-05-29
183132 Test exit breach or headward erosion hypotheses for erosional feature -34.731 25.737 STEREO 2020-05-29
183130 Erosional windows into deposit at mouth of branching canyon -31.722 2.512 1 2020-05-29
183048 Crater floor deposits 23.933 358.835 1 2020-05-24
183046 Outcrop on E side of candidate delta scarp fronted deposit 23.423 358.624 1 2020-05-24
183044 More layered materials in low albedo region near deepest point of crater 25.994 348.008 1 2020-05-24
183042 Layered materials in low albedo region near deepest point of crater 26.030 347.906 1 2020-05-24
183040 Sinuous feature connecting two flat-topped deposits in Wahoo 22.987 326.196 1 2020-05-24
183038 Relationship between ridges channels and candidate lake deposits in Wahoo 23.472 325.999 1 2020-05-24
183036 Channel plus wind eroded sedimentary deposit and candidate paleolake 23.507 326.185 STEREO 2020-05-24
183034 Channel plus wind eroded sedimentary deposit and candidate paleolake 23.507 326.185 STEREO 2020-05-24
183032 4 km2 alluvial fan in post-Kasei crater 24.431 304.361 1 2020-05-24
183030 Possible bajada in southwest Sharonov Crater 26.673 300.841 1 2020-05-24
183028 Fan-shaped deposit in southwest Sharonov Crater 26.574 301.017 1 2020-05-24 ESP_065370_2070
183026 Layer exposure in candidate alluvial fan deposits 21.636 272.798 STEREO 2020-05-24
183024 Layer exposure in candidate alluvial fan deposits 21.636 272.798 STEREO 2020-05-24
183020 Layers and candidate synsedimentary impact craters in crater with deltas 27.948 11.404 1 2020-05-23
183018 Layers in trough on E side of Radau central peak 17.010 355.295 STEREO 2020-05-23
183016 Layers in trough on E side of Radau central peak 17.010 355.295 STEREO 2020-05-23
183014 Test for interfingering vs superposition of fans and lake deposits 12.654 311.767 STEREO 2020-05-23
183012 Test for interfingering vs superposition of fans and lake deposits 12.654 311.767 STEREO 2020-05-23
182948 Test hypothesis that lake deposits embay ejecta of 10 km diameter crater 8.326 310.836 1 2020-05-22
182946 Test relationship between ridges and candidate lake deposits 8.240 310.453 1 2020-05-22
182902 Pollywog and candidate fluvial or lake sediments in young crater at equator 3.178 297.460 STEREO 2020-05-21
182900 Pollywog and candidate fluvial or lake sediments in young crater at equator 3.178 297.460 STEREO 2020-05-21
182882 Constrain relationship between sinuous ridges channels and lake deposits 0.442 296.799 1 2020-05-21
182818 Test lake deposit hypothesis 2.370 286.070 STEREO 2020-05-20
182816 Test lake deposit hypothesis 2.370 286.070 STEREO 2020-05-20
182794 Premound or postmound candidate lake deposits in Nicholson moat 0.196 196.032 1 2020-05-20
182780 Lake deposits or eroded early-stage alluvial deposits plus embedded crater 2.624 129.312 1 2020-05-20
182778 Alluvial fan or debris flow deposit in remarkably young crater 6.760 129.343 1 2020-05-20
182776 Constrain lake levels and lake timing in du Martheray crater 6.037 93.232 1 2020-05-20
182774 Test whether one or two wet climates are recorded by du Martheray 5.326 94.015 1 2020-05-20
182766 Great stratigraphic exposure on steep dipping flank of giant sediment mound 1.709 26.838 STEREO 2020-05-19
182764 Great stratigraphic exposure on steep dipping flank of giant sediment mound 1.709 26.838 STEREO 2020-05-19
182762 Seek orbital bundling of quasiperiodic beds 1.563 26.840 STEREO 2020-05-19
182760 Seek orbital bundling of quasiperiodic beds 1.563 26.840 STEREO 2020-05-19
182738 Use unusual outlier layer orientations to test mound origin hypotheses 2.000 27.018 STEREO 2020-05-19
182736 Use unusual outlier layer orientations to test mound origin hypotheses 2.000 27.018 STEREO 2020-05-19
182734 Use unusual outlier layer orientations to test mound origin hypotheses 2.197 26.648 STEREO 2020-05-19
182732 Use unusual outlier layer orientations to test mound origin hypotheses 2.197 26.648 STEREO 2020-05-19
182688 Layers in crater 8.818 20.868 STEREO 2020-05-18
182686 Layers in crater 8.818 20.868 STEREO 2020-05-18 ESP_065354_1890
182684 Fractures and channels and layered drape near deepest point of Tuskegee -2.697 323.745 STEREO 2020-05-18
182682 Fractures and channels and layered drape near deepest point of Tuskegee -2.697 323.745 STEREO 2020-05-18
182678 Crater floor -2.864 307.898 1 2020-05-18
182636 Junction between fans and lake deposit high on VM plateau -7.791 303.385 1 2020-05-17
182634 Possible synsedimentary impact craters in layered deposits -7.548 303.385 1 2020-05-17
182632 Margins of flat-topped deposits connected by sinuous ridges in Perrotin -2.360 282.180 1 2020-05-17
182628 Lake deposit or lava flow in moat of Asau -3.647 154.631 1 2020-05-17
182622 Test hypotheses for origin OSO Orbital_Striated_Outcrop versus Siccar -4.650 138.287 STEREO 2020-05-17
182620 Test hypotheses for origin OSO Orbital_Striated_Outcrop versus Siccar -4.650 138.287 STEREO 2020-05-17
182586 Light-toned layers near fan terminus in Salkhad -29.772 83.534 1 2020-05-16
182538 Erosional window into possible lake deposit in Baum -24.839 28.308 1 2020-05-15
182536 Unusually steep fan -25.840 20.894 1 2020-05-15
182244 Channels and possible lake deposits near deepest point of Holden -26.456 325.848 1 2020-05-07
182202 Candidate lake deposit in crater high on Tharsis -13.931 283.417 STEREO 2020-05-06
182200 Candidate lake deposit in crater high on Tharsis -13.931 283.417 STEREO 2020-05-06
182192 Floor of Jones Crater -19.119 340.371 1 2020-05-06
182032 Possible lake deposit outliers downstream of fan -30.072 199.905 1 2020-05-03
182030 Possible alluvial fan deposit and small alcoves -27.330 133.256 1 2020-05-03
182026 Layers exposed in margins of two fans or deltas 21.491 57.880 STEREO 2020-05-02
182024 Layers exposed in margins of two fans or deltas 21.491 57.880 STEREO 2020-05-02
181848 Very high drainage density in Middle Noachian terrain NW of Sytinskaya 43.160 305.484 1 2020-04-22
180646 Landform in CTX image G03_019466_2032_XN_23N014W 23.389 345.877 STEREO 2020-03-19
180644 Landform in CTX image G03_019466_2032_XN_23N014W 23.389 345.877 STEREO 2020-03-19 ESP_064709_2035
180092 Possible dissection of alluvial fan by flood channel in Shalbatana 1.321 315.777 1 2020-02-29
180090 Very high drainage density in Middle Noachian terrain NW of Sytinskaya 43.160 305.484 1 2020-02-27
179338 Test river-dune interaction hypothesis in ancient rocks 5.646 25.843 STEREO 2020-01-01

Each suggestion is given a unique ID. A stereo suggestion will be made into a pair at the discretion of the Science Theme Lead.

Suggestion title.

Latitudes are expressed in planetocentric degrees.

Longitude are measured in degrees and range east from 0 to 360.

1 for a single suggestion, STEREO for a stereo suggestion, otherwise the number of suggestions in a seasonal or other repeat set.

The date on which the suggestion was created.

If the suggestion has been retired, a link to the observation page.

The username of the suggester.